Hourly Weather Roundup
Issued by NWS Central Illinois

Home | Current Version | Previous Version | Text Only | Print | Product List | Glossary On
Versions: 1 2 3 4 5 6 7 8 9 10 11 12 13 14 15 16 17 18 19 20 21 22 23 24 25 26 27 28 29 30 31 32 33 34 35 36 37 38 39 40 41 42 43 44 45 46 47 48 49 50
000
NZUS43 KILX 222310
HWRILX

Area Weather Roundup
National Weather Service Lincoln IL
600 PM CDT FRI SEP 22 2017

NOTE:  "FAIR" indicates few or no clouds below 12,000 feet, with
       no sigificant weather and/or obstructions to visibility.


CITY           SKY/WX    TMP DP  RH WIND       PRES   REMARKS
Bloomington    PTCLDY    90  64  42 CALM      30.03R HX  91
Champaign      CLOUDY    85  64  49 E9        30.04R HX  86
Danville       MOCLDY    81  68  65 W3        30.03R HX  83
Decatur        CLEAR     90  64  42 S3        30.01R HX  91
Effingham      CLEAR     91  64  40 E6        30.02R HX  92
Flora          CLEAR     87  68  53 SE3       30.00S HAZE    HX  90
Galesburg      SUNNY     88  64  44 S6        30.00S HX  90
Jacksonville   SUNNY     91  60  35 SE6       29.99S HX  90
Lacon          CLEAR     91  65  41 SW3       29.99S HX  93
Lawrenceville  CLEAR     87  71  58 SE8       30.01R HX  93
Litchfield     CLEAR     89  65  45 SE3       30.00S HX  90
$$


CITY           SKY/WX    TMP DP  RH WIND       PRES   REMARKS
Lincoln        CLEAR     93  64  38 CALM      29.99S HX  94
Macomb         SUNNY     91  60  36 S5        30.01S HX  90
Mattoon        CLEAR     90  65  43 SE5       30.00S HX  92
Mt Carmel AP   CLEAR     89  66  46 S3        30.01R HX  91
Olney-Noble AP CLOUDY    91  58  33 E6        30.01R HX  90
Paris AP       PTCLDY    90  67  47 E9        30.03R HX  93
Peoria         CLEAR     91  64  40 W3        29.99S HX  92
Pontiac        CLEAR     92  64  39 CALM      30.02R HX  94
Rantoul        MOCLDY    85  67  55 E12       30.04R HX  87
Robinson       PTCLDY    89  69  50 CALM      30.01S HX  93
Springfield    CLEAR     93  63  36 S3        29.99F HX  94
Taylorville    CLEAR     90  64  42 CALM      30.00S HX  91
$$

...REGIONAL REPORTS...


CITY           SKY/WX    TMP DP  RH WIND       PRES   REMARKS
Chicago O`Hare PTCLDY    92  64  39 SW8       30.01S HX  93
Kankakee       CLEAR     87  70  56 SE5       30.04R HX  91
Moline         SUNNY     90  64  42 S6        29.97S HX  91
Mount Sterling SUNNY     89  64  42 S3        29.99S HX  90
Mount Vernon     N/A     90  68  48 SE5       30.00S HX  94
Pittsfield     SUNNY     91  63  39 S5        30.00S HX  91
Quincy         SUNNY     90  62  39 S9        29.97F HX  90
Rockford       CLEAR     88  65  46 S7        30.02R HX  90
$$


CITY           SKY/WX    TMP DP  RH WIND       PRES   REMARKS
Burlington     SUNNY     89  67  47 S8        29.96F HX  92
Cedar Rapids   SUNNY     89  66  46 S12       29.95S HX  91
Des Moines     MOSUNNY   89  66  46 S17       29.90R HX  91
Kirksville     SUNNY     88  66  48 S13       29.97S HX  90
Ottumwa        SUNNY     89  66  46 S12G20    29.93S HX  91
St Louis       MOSUNNY   92  60  34 SE9       29.99R HX  91
$$


CITY           SKY/WX    TMP DP  RH WIND       PRES   REMARKS
Terre Haute    PTCLDY    90  63  40 E5        30.01S HX  91
Evansville     CLEAR     87  65  47 E6        30.01S HX  89
Indianapolis   CLOUDY    83  64  52 E3        30.04S HX  84
Lafayette      CLOUDY    84  70  62 SW3       30.03R HX  88
Madison        PTCLDY    89  64  43 S8        29.99S HX  90
Milwaukee      PTCLDY    86  68  54 SE10      30.02R HX  89
$$





USA.gov is the U.S. government's official web portal to all federal, state and local government web resources and services.